Temp
-8 -8 -9 -9 -9 -8 -8 -8 -8 -9 -8 -8 -9 -9 -9 -9 -9 -9 -9 -9 -9 -9 -9 -8 -8 -8 -8 -9 -8 -9 -8 -8 -8 -9 -9 -9 -9 -9 -9 -10 -10 -10 -10
-9 -10 -10 -9 -8 -8 -8 -8 -9 -9 -9 -9 -9 -9 -9 -10 -10 -10 -10 -10 -9 -9 -9 -9 -9 -9 -9 -9 -9 -9 -9 -9 -9 -9 -9 -9 -9 -9 -9 -10 -10 -10 -10
-9 -9 -9 -9 -9 -9 -9 -9 -9 -9 -9 -10 -10 -10 -10 -10 -10 -10 -10 -10 -10 -10 -9 -9 -9 -9 -9 -9 -9 -9 -9 -9 -9 -9 -9 -9 -9 -9 -10 -10 -10 -10 -11
-10 -9 -9 -10 -10 -10 -10 -10 -10 -10 -10 -10 -10 -10 -10 -10 -10 -10 -10 -10 -10 -10 -10 -10 -9 -9 -9 -9 -9 -9 -9 -9 -9 -9 -9 -9 -9 -9 -9 -10 -10 -10 -10
-10 -10 -10 -10 -10 -11 -11 -11 -11 -11 -11 -11 -11 -11 -11 -11 -11 -11 -10 -10 -10 -10 -10 -10 -10 -10 -9 -9 -9 -9 -9 -9 -9 -9 -9 -9 -9 -9 -9 -10 -10 -10 -10
-10 -11 -11 -11 -11 -11 -11 -11 -11 -11 -11 -11 -11 -11 -11 -11 -11 -11 -11 -11 -11 -11 -11 -10 -10 -10 -10 -10 -10 -9 -9 -9 -9 -9 -9 -9 -9 -9 -10 -10 -10 -10 -10
-11 -11 -11 -11 -12 -12 -11 -11 -11 -11 -11 -11 -11 -11 -11 -11 -11 -11 -11 -11 -11 -11 -11 -11 -11 -10 -10 -10 -10 -10 -10 -10 -9 -9 -9 -9 -9 -9 -10 -10 -10 -10 -10
-11 -12 -12 -12 -12 -12 -12 -12 -12 -11 -11 -11 -11 -11 -11 -11 -11 -11 -11 -11 -11 -11 -11 -11 -11 -11 -10 -10 -10 -10 -10 -10 -10 -10 -9 -10 -10 -9 -10 -10 -10 -10 -10
-12 -12 -12 -12 -12 -12 -12 -12 -12 -12 -11 -11 -11 -11 -11 -11 -11 -11 -11 -11 -11 -11 -11 -11 -11 -11 -11 -11 -11 -10 -10 -10 -10 -10 -10 -10 -10 -10 -10 -10 -10 -10 -10
-12 -12 -12 -12 -12 -12 -12 -12 -12 -12 -12 -11 -11 -11 -11 -11 -11 -10 -11 -11 -11 -11 -11 -11 -11 -11 -11 -11 -11 -11 -11 -11 -11 -10 -10 -10 -10 -10 -10 -10 -10 -10 -10
-12 -12 -12 -12 -12 -12 -12 -12 -12 -12 -12 -12 -12 -12 -12 -11 -11 -11 -11 -11 -11 -11 -11 -11 -11 -12 -11 -11 -11 -11 -11 -11 -11 -11 -10 -10 -10 -10 -10 -10 -10 -10 -10
-12 -12 -12 -12 -12 -12 -12 -12 -12 -12 -12 -12 -12 -12 -11 -11 -11 -11 -11 -11 -11 -11 -11 -11 -11 -11 -11 -12 -11 -11 -11 -11 -11 -11 -11 -11 -10 -10 -10 -10 -10 -10 -10
-12 -12 -12 -12 -12 -12 -12 -12 -12 -12 -12 -11 -11 -11 -11 -11 -11 -11 -11 -11 -12 -12 -12 -12 -11 -11 -12 -12 -12 -12 -12 -11 -11 -11 -11 -11 -11 -11 -10 -10 -10 -10 -10
-12 -12 -12 -11 -11 -11 -11 -11 -11 -11 -11 -11 -11 -11 -11 -11 -11 -11 -11 -11 -11 -11 -11 -12 -12 -12 -12 -12 -12 -12 -12 -12 -12 -11 -11 -11 -11 -11 -11 -10 -10 -10 -11
-12 -12 -12 -11 -11 -11 -11 -11 -11 -11 -11 -11 -11 -11 -11 -11 -11 -12 -11 -11 -11 -11 -11 -12 -12 -12 -12 -12 -12 -12 -12 -12 -12 -12 -12 -12 -11 -11 -11 -11 -11 -11 -11
-12 -12 -12 -12 -12 -12 -11 -11 -11 -11 -11 -11 -11 -11 -11 -11 -11 -11 -11 -11 -12 -12 -11 -11 -12 -12 -12 -12 -12 -12 -12 -13 -13 -12 -12 -12 -12 -12 -11 -11 -11 -11 -11
-12 -12 -12 -12 -12 -12 -12 -12 -12 -12 -11 -11 -11 -11 -11 -11 -11 -11 -11 -11 -11 -11 -12 -12 -12 -12 -12 -12 -12 -12 -12 -12 -12 -13 -13 -12 -12 -12 -12 -12 -11 -11 -11
-12 -12 -12 -12 -12 -12 -12 -12 -12 -12 -12 -12 -12 -12 -12 -11 -11 -11 -11 -11 -11 -11 -11 -12 -12 -12 -12 -12 -12 -12 -12 -12 -12 -12 -13 -13 -12 -12 -12 -12 -12 -12 -11
-13 -13 -13 -13 -12 -12 -12 -12 -12 -12 -12 -12 -12 -12 -12 -12 -12 -12 -12 -11 -11 -11 -11 -11 -12 -12 -12 -12 -12 -12 -12 -12 -12 -12 -13 -13 -13 -13 -13 -12 -12 -12 -12
-13 -13 -13 -13 -13 -13 -13 -13 -13 -12 -12 -12 -13 -13 -13 -13 -12 -12 -12 -12 -11 -12 -12 -12 -11 -12 -12 -12 -13 -13 -13 -13 -13 -13 -12 -13 -13 -13 -13 -13 -12 -12 -12
-13 -13 -13 -13 -13 -13 -13 -13 -13 -13 -13 -13 -13 -13 -13 -13 -12 -12 -12 -12 -12 -12 -12 -12 -12 -12 -12 -13 -13 -13 -13 -13 -13 -13 -12 -12 -12 -12 -13 -13 -13 -13 -12
-14 -14 -14 -14 -14 -14 -13 -13 -13 -13 -14 -14 -13 -13 -13 -13 -13 -13 -13 -13 -13 -13 -13 -13 -13 -13 -12 -13 -13 -13 -13 -12 -13 -13 -13 -12 -12 -12 -12 -13 -13 -13 -13
-14 -14 -14 -14 -14 -14 -14 -14 -14 -14 -14 -14 -14 -14 -14 -13 -13 -13 -13 -13 -13 -13 -13 -13 -13 -13 -13 -13 -13 -13 -12 -12 -13 -13 -13 -13 -13 -14 -12 -13 -13 -13 -13
-15 -15 -15 -15 -15 -15 -15 -15 -15 -14 -14 -14 -14 -14 -14 -14 -14 -14 -14 -13 -13 -13 -13 -13 -13 -13 -13 -13 -13 -13 -13 -12 -12 -13 -13 -13 -13 -13 -12 -12 -13 -14 -13
-16 -16 -16 -16 -16 -16 -15 -15 -15 -15 -15 -15 -15 -15 -15 -15 -14 -14 -14 -14 -14 -14 -13 -14 -14 -14 -14 -14 -14 -14 -14 -14 -14 -13 -14 -13 -13 -13 -13 -13 -13 -14 -14
-16 -16 -16 -16 -17 -17 -16 -16 -16 -16 -16 -16 -15 -15 -15 -15 -15 -15 -16 -16 -16 -16 -16 -16 -15 -15 -15 -15 -14 -15 -15 -15 -15 -15 -14 -14 -14 -14 -13 -13 -14 -14 -14
Height
5860 5859 5858 5857 5856 5856 5855 5855 5854 5854 5853 5852 5851 5850 5848 5847 5847 5847 5846 5846 5844 5843 5842 5841 5840 5839 5838 5837 5837 5836 5835 5836 5835 5834 5833 5831 5830 5830 5829 5828 5826 5826 5825
5856 5856 5854 5854 5853 5852 5852 5851 5851 5850 5850 5849 5848 5847 5846 5845 5844 5844 5843 5842 5842 5840 5839 5839 5838 5837 5836 5835 5834 5834 5833 5834 5832 5832 5831 5830 5829 5828 5828 5827 5825 5826 5824
5853 5851 5851 5852 5851 5849 5848 5847 5847 5846 5846 5845 5845 5844 5843 5842 5841 5840 5839 5838 5839 5838 5836 5836 5835 5834 5834 5833 5832 5831 5831 5830 5830 5830 5829 5828 5827 5827 5827 5825 5824 5824 5823
5849 5849 5848 5848 5847 5846 5845 5844 5843 5842 5841 5841 5841 5841 5839 5838 5837 5836 5835 5835 5834 5834 5834 5833 5832 5831 5831 5830 5828 5829 5828 5827 5827 5827 5827 5826 5825 5825 5824 5824 5823 5822 5821
5845 5845 5845 5844 5843 5842 5841 5840 5838 5837 5837 5836 5836 5837 5835 5834 5833 5833 5832 5831 5831 5830 5830 5830 5830 5828 5828 5828 5826 5826 5825 5824 5825 5825 5825 5825 5824 5823 5823 5822 5821 5820 5818
5842 5841 5840 5840 5838 5837 5836 5835 5834 5833 5832 5831 5831 5831 5831 5829 5829 5829 5828 5827 5827 5826 5827 5827 5826 5825 5826 5825 5824 5823 5822 5821 5822 5822 5822 5822 5822 5822 5821 5820 5820 5819 5817
5837 5836 5835 5835 5833 5832 5830 5829 5828 5828 5827 5826 5826 5826 5826 5825 5825 5825 5824 5823 5823 5822 5822 5823 5824 5822 5823 5822 5822 5821 5819 5819 5819 5819 5819 5820 5820 5819 5819 5818 5818 5817 5816
5831 5831 5830 5829 5827 5826 5824 5823 5822 5822 5822 5821 5821 5821 5821 5821 5820 5820 5819 5819 5819 5819 5819 5819 5820 5820 5820 5820 5819 5818 5817 5816 5816 5816 5816 5816 5817 5816 5817 5816 5816 5815 5815
5826 5826 5824 5823 5821 5820 5819 5818 5817 5816 5816 5816 5815 5815 5816 5815 5815 5815 5814 5814 5814 5815 5815 5816 5816 5816 5816 5816 5815 5814 5814 5814 5813 5813 5812 5812 5813 5813 5814 5813 5813 5813 5812
5820 5819 5819 5817 5816 5816 5815 5814 5812 5812 5811 5810 5810 5809 5810 5810 5809 5809 5809 5809 5809 5810 5810 5811 5811 5812 5812 5812 5811 5810 5810 5810 5809 5810 5809 5809 5809 5809 5809 5810 5810 5810 5810
5815 5814 5812 5811 5811 5810 5810 5808 5807 5806 5805 5805 5805 5805 5805 5805 5804 5804 5804 5805 5803 5804 5805 5804 5804 5805 5806 5806 5806 5805 5805 5804 5804 5805 5805 5806 5805 5806 5806 5806 5806 5806 5807
5809 5807 5805 5804 5804 5804 5804 5803 5801 5800 5800 5800 5799 5798 5799 5799 5799 5799 5798 5798 5797 5798 5799 5799 5798 5799 5800 5799 5799 5800 5800 5799 5799 5799 5800 5802 5801 5802 5802 5802 5802 5803 5803
5802 5801 5800 5799 5799 5799 5798 5798 5796 5795 5795 5794 5794 5793 5792 5792 5793 5793 5793 5793 5792 5791 5791 5792 5792 5792 5792 5792 5793 5794 5794 5794 5793 5794 5794 5796 5797 5797 5798 5799 5799 5799 5799
5797 5795 5795 5794 5793 5793 5792 5792 5792 5791 5790 5789 5788 5788 5788 5787 5786 5785 5786 5785 5785 5785 5784 5783 5784 5784 5785 5785 5785 5785 5788 5788 5787 5787 5789 5791 5792 5793 5794 5795 5795 5795 5795
5790 5790 5789 5789 5788 5787 5786 5786 5785 5785 5784 5783 5782 5781 5780 5780 5779 5779 5779 5778 5777 5777 5777 5776 5775 5776 5776 5777 5778 5778 5779 5781 5781 5780 5781 5785 5785 5787 5789 5789 5790 5790 5791
5784 5784 5782 5782 5781 5781 5780 5780 5778 5777 5776 5774 5773 5772 5771 5770 5770 5770 5769 5770 5769 5767 5767 5768 5768 5768 5768 5767 5768 5770 5771 5771 5771 5772 5774 5777 5778 5780 5782 5783 5784 5785 5786
5776 5775 5775 5774 5773 5772 5772 5771 5771 5769 5768 5767 5765 5763 5762 5760 5759 5758 5758 5757 5757 5757 5757 5756 5757 5758 5758 5759 5759 5760 5761 5763 5763 5763 5765 5767 5771 5772 5775 5777 5778 5780 5781
5768 5766 5765 5764 5763 5763 5763 5762 5761 5760 5758 5757 5755 5754 5752 5751 5750 5749 5747 5746 5745 5745 5744 5745 5744 5745 5746 5747 5748 5749 5751 5753 5754 5755 5756 5758 5761 5765 5768 5770 5772 5772 5774
5758 5756 5755 5753 5752 5751 5750 5749 5749 5748 5746 5745 5743 5742 5741 5739 5738 5737 5735 5733 5731 5730 5730 5730 5731 5731 5732 5735 5735 5736 5738 5739 5742 5744 5745 5747 5751 5754 5760 5761 5765 5766 5768
5748 5746 5744 5743 5741 5740 5738 5737 5735 5734 5732 5731 5730 5729 5727 5726 5724 5723 5721 5719 5718 5715 5714 5713 5714 5716 5717 5718 5721 5723 5725 5726 5729 5731 5735 5738 5740 5743 5747 5753 5755 5759 5761
5736 5734 5733 5731 5729 5728 5726 5724 5723 5721 5719 5717 5716 5714 5712 5711 5709 5706 5705 5704 5702 5700 5699 5697 5698 5699 5701 5702 5705 5708 5712 5713 5714 5719 5722 5726 5729 5733 5736 5740 5746 5749 5753
5723 5721 5719 5717 5716 5714 5712 5711 5709 5707 5705 5703 5701 5698 5696 5694 5691 5689 5687 5685 5684 5682 5681 5681 5681 5682 5684 5686 5689 5692 5697 5700 5703 5706 5709 5714 5717 5721 5726 5728 5732 5739 5743
5710 5707 5705 5704 5702 5700 5698 5696 5695 5693 5691 5689 5686 5683 5679 5676 5674 5671 5669 5667 5666 5663 5663 5663 5663 5664 5667 5670 5671 5674 5678 5685 5689 5690 5697 5702 5699 5698 5712 5716 5721 5725 5731
5695 5694 5692 5690 5688 5686 5684 5682 5681 5679 5676 5673 5671 5667 5663 5659 5657 5654 5652 5649 5646 5645 5645 5645 5646 5647 5649 5654 5654 5655 5660 5665 5671 5675 5679 5684 5681 5691 5699 5704 5708 5712 5717
5681 5680 5678 5676 5674 5672 5671 5669 5667 5664 5661 5658 5655 5651 5647 5643 5640 5637 5634 5631 5627 5625 5626 5626 5626 5628 5630 5634 5639 5638 5641 5645 5650 5656 5661 5668 5673 5680 5685 5691 5692 5696 5700
5669 5667 5665 5663 5661 5659 5657 5655 5653 5650 5646 5643 5640 5636 5632 5628 5624 5621 5618 5615 5612 5611 5611 5612 5613 5615 5616 5619 5623 5625 5626 5630 5636 5638 5644 5653 5661 5668 5672 5678 5683 5687 5689
Wind_Speed
21 21 20 21 22 22 23 22 21 21 21 22 19 19 18 17 16 12 11 12 11 11 11 13 12 14 15 15 14 13 11 10 10 11 10 10 11 11 12 13 12 10 10
22 21 23 25 24 25 26 26 27 26 26 24 22 21 19 18 18 17 16 14 15 15 14 15 14 13 14 15 16 16 13 12 10 11 10 10 11 12 11 11 11 10 14
24 27 27 27 27 28 29 29 29 28 27 25 23 22 20 21 20 18 18 16 16 16 15 16 17 17 16 15 15 17 16 14 12 12 11 10 11 12 11 11 11 12 14
30 30 30 29 30 29 29 29 29 29 30 29 25 23 22 22 22 18 17 18 17 17 17 16 17 17 18 17 15 16 17 16 15 14 13 11 12 12 11 10 11 11 13
32 30 31 31 30 31 31 31 32 32 33 33 30 28 25 23 23 22 18 17 19 19 18 18 18 17 19 18 16 16 15 16 17 16 15 14 13 11 11 10 11 10 12
31 33 33 33 33 33 36 35 32 33 33 34 31 29 28 26 24 23 21 19 18 19 20 20 19 18 19 19 17 17 15 15 17 18 17 16 14 12 12 11 13 10 10
32 32 33 34 34 36 36 37 35 34 34 35 33 30 28 26 26 24 23 23 21 19 19 21 22 20 21 21 19 18 16 16 17 18 19 18 16 15 14 13 12 10 10
34 34 35 36 36 35 35 35 36 35 34 34 33 31 27 26 25 24 24 23 25 23 21 20 22 23 23 23 22 20 19 18 18 18 19 20 18 17 15 14 13 11 11
34 36 36 36 36 37 37 37 38 36 35 33 32 30 28 26 25 24 25 25 24 25 25 23 22 23 26 25 25 24 24 22 20 18 19 19 20 20 18 17 15 14 13
35 37 40 40 39 37 37 36 38 39 36 34 31 31 29 28 27 27 28 27 27 27 26 28 28 25 26 27 28 26 26 25 24 22 20 18 21 21 21 19 19 18 16
35 38 41 42 41 37 37 40 39 38 37 35 34 32 31 30 29 30 29 29 30 28 27 30 29 27 29 30 31 30 28 27 25 25 24 19 21 21 22 22 22 21 19
29 31 33 34 36 35 36 37 38 36 36 36 37 35 33 33 33 32 34 32 33 33 31 29 30 31 27 31 33 32 31 30 28 26 26 23 23 23 24 24 22 23 22
30 28 28 28 30 33 34 33 32 35 34 32 32 32 33 34 33 34 34 35 36 36 35 35 34 32 32 32 33 34 33 32 32 29 28 25 26 24 23 22 21 23 23
29 26 26 26 26 26 27 26 25 25 26 27 27 28 28 30 32 34 34 35 36 37 38 38 36 36 34 35 36 31 35 34 34 33 30 27 27 25 23 24 23 25 25
27 26 24 24 26 25 26 27 28 28 29 30 30 31 31 33 34 35 37 40 40 38 39 40 39 38 38 37 38 38 38 37 37 37 35 28 31 29 27 26 26 25 25
31 30 30 30 31 32 32 34 35 37 37 38 38 38 38 39 40 42 44 44 44 47 46 45 45 42 41 39 39 39 40 41 42 39 39 34 33 32 30 28 27 25 25
37 37 37 38 39 39 39 39 40 41 42 43 44 44 45 46 48 49 50 53 53 52 51 51 49 48 46 45 43 39 40 41 44 43 40 42 37 35 33 31 29 27 27
43 44 45 46 46 46 45 45 46 46 46 47 46 47 48 49 52 53 54 55 56 59 58 56 53 53 51 48 47 44 41 43 43 43 44 44 44 38 36 35 32 31 31
49 50 51 52 53 53 52 51 52 52 52 52 52 52 52 54 56 55 54 55 57 60 62 63 59 56 55 52 51 49 47 43 45 47 49 49 46 47 40 38 36 36 33
52 53 54 55 57 58 58 59 58 58 58 58 57 57 57 58 57 55 55 57 61 64 65 64 66 61 57 57 55 52 51 50 46 49 50 52 52 51 48 41 41 39 37
57 58 60 61 62 62 63 64 63 61 60 59 59 60 59 57 57 58 58 59 61 63 61 62 61 62 60 59 59 57 55 55 55 50 50 52 52 55 53 50 45 43 41
60 61 63 63 64 64 64 64 62 60 59 59 58 58 58 59 60 61 63 63 63 62 63 64 63 63 62 62 62 61 60 60 58 56 53 52 52 56 60 57 53 46 45
62 62 61 61 61 61 60 60 59 57 57 57 56 58 62 62 62 63 62 61 61 62 63 63 61 61 62 62 65 65 64 63 62 62 58 55 64 44 61 68 54 52 48
59 59 58 57 56 56 55 55 55 55 56 56 58 60 61 61 61 61 62 63 60 59 58 60 62 61 61 62 64 67 67 68 67 67 65 63 51 54 57 61 60 58 54
55 55 54 54 54 54 54 55 54 55 57 58 59 60 59 58 59 58 52 50 50 53 55 54 53 52 52 54 55 61 63 62 62 66 67 67 65 60 62 56 59 65 57
51 51 51 52 52 53 53 53 55 56 57 57 58 57 55 50 48 46 47 44 43 42 43 40 42 47 51 54 55 55 61 59 56 57 59 63 67 64 62 58 55 57 62
Wind_Direction
279 281 283 284 287 290 293 299 303 306 301 291 290 291 290 291 293 290 284 280 277 278 284 284 282 281 277 275 277 281 291 303 311 309 298 296 293 293 305 310 314 306 299
277 274 274 280 283 290 295 298 300 306 308 302 296 296 293 293 298 294 291 280 277 277 278 284 286 281 282 279 277 278 283 288 297 300 293 292 293 294 301 303 310 290 301
267 269 275 282 290 298 295 298 298 299 299 300 299 297 295 293 288 284 285 283 279 281 279 280 285 281 281 286 286 280 278 278 281 284 284 288 288 291 297 302 313 306 304
271 274 281 286 290 292 293 294 292 294 294 295 298 297 292 286 285 283 285 285 283 279 281 282 287 285 282 285 285 282 278 276 273 275 281 282 282 286 293 299 306 310 314
274 280 289 291 291 292 291 291 289 292 290 291 294 298 290 284 281 280 277 278 281 282 280 280 286 288 286 282 281 281 281 277 272 270 275 279 275 284 285 295 305 313 315
276 280 284 289 289 290 289 289 290 290 291 289 289 294 291 290 286 284 282 276 275 281 281 280 280 285 285 285 288 284 282 278 272 266 267 272 280 279 284 289 301 306 314
274 278 279 281 285 286 285 286 287 289 290 290 289 288 286 285 285 285 285 280 277 275 276 276 280 282 283 284 286 288 287 282 275 268 261 265 271 271 272 287 290 297 312
270 273 277 280 281 283 284 284 286 287 288 288 287 286 285 284 283 281 281 283 279 278 275 273 273 278 279 281 283 287 289 287 283 276 268 261 265 268 269 274 281 289 299
267 269 270 270 271 275 278 280 281 280 283 283 282 283 284 283 280 282 282 280 279 279 278 274 269 270 276 279 279 282 284 286 288 282 275 268 265 266 266 265 274 279 286
264 265 267 267 268 273 278 282 282 281 280 279 277 280 281 282 281 278 274 277 277 277 278 275 267 263 266 271 276 278 281 282 284 285 278 273 262 261 262 263 264 272 280
264 266 266 268 270 275 277 279 279 280 280 282 285 286 287 285 283 284 281 279 276 275 274 274 280 267 263 264 266 269 273 276 278 281 281 273 266 260 262 262 262 267 274
263 271 274 272 266 270 274 275 276 276 278 281 285 286 284 282 280 279 280 278 276 277 274 269 271 273 271 262 262 264 268 271 274 273 277 277 270 262 261 263 260 263 267
261 265 273 275 272 271 273 273 273 274 277 280 283 286 289 289 289 286 283 281 280 278 275 272 265 263 266 266 265 265 263 266 270 271 271 276 274 262 258 258 259 260 263
265 267 268 270 271 272 274 276 277 276 276 278 281 284 287 289 291 292 290 287 285 284 282 278 274 267 261 262 264 264 264 261 262 265 267 270 269 262 259 263 261 260 261
262 265 270 274 277 279 280 282 282 283 284 285 285 287 290 292 293 292 290 289 287 281 281 280 279 276 269 264 260 264 265 262 260 261 260 259 262 261 260 262 263 261 259
268 270 275 278 280 282 284 286 288 287 287 287 287 286 287 289 291 292 291 289 285 283 280 276 276 276 276 272 266 263 263 265 257 254 259 255 258 258 258 258 259 259 258
271 275 278 279 280 281 282 283 283 284 284 283 283 283 284 287 290 291 291 290 286 282 280 276 274 271 270 271 270 266 263 262 264 264 252 257 252 256 255 254 255 253 255
274 275 276 279 281 281 281 282 283 284 284 282 280 280 281 284 287 287 286 284 282 279 277 277 272 271 268 265 268 269 263 259 260 260 259 252 256 252 254 254 253 250 251
273 275 277 279 280 281 281 281 282 284 285 284 283 283 283 283 283 284 283 281 279 276 274 272 271 268 266 262 262 263 266 262 256 257 256 261 247 253 249 252 252 251 250
274 275 275 276 278 280 281 282 284 285 285 285 283 281 281 282 284 284 284 281 278 277 276 274 270 270 266 263 260 260 261 264 260 256 256 256 256 245 249 246 251 251 249
274 274 275 275 277 278 280 282 283 283 282 281 280 281 282 282 282 284 283 280 273 272 274 272 271 270 267 262 258 258 258 258 258 258 258 256 253 258 244 247 245 250 249
274 274 275 276 277 278 279 280 280 280 280 280 280 280 281 282 281 281 280 277 276 276 272 269 267 264 264 262 259 259 256 255 258 256 257 266 255 252 256 242 245 244 248
274 274 276 277 278 278 279 280 280 279 279 280 280 279 279 280 282 282 282 279 276 274 272 268 267 264 260 260 260 259 259 258 255 256 255 258 264 248 259 253 241 242 243
275 276 276 277 278 278 278 278 278 278 278 278 278 279 281 284 285 285 282 280 280 277 274 272 270 267 264 262 259 259 259 259 254 251 249 249 242 262 259 261 261 238 240
276 277 277 277 278 278 278 279 279 279 278 278 280 283 285 286 285 284 284 282 280 278 275 269 262 259 258 257 256 257 255 254 254 251 247 246 250 252 255 261 272 234 233
273 274 275 276 278 279 280 280 280 281 284 284 285 286 287 290 286 285 284 281 274 272 265 264 265 262 260 257 255 256 255 255 256 255 250 246 242 246 251 257 261 262 233